Regional Weather Roundup
Issued by NWS

Home | Current Version | Previous Version | Graphics & Text | Print | Product List | Glossary On
Versions: 1 2 3 4 5 6 7 8 9 10 11 12 13 14 15 16 17 18 19 20 21 22 23 24 25 26 27 28 29 30 31 32 33 34 35 36 37 38 39 40 41 42 43 44 45 46 47 48 49 50
000
ASUS45 KBOU 040707
RWRCO

WEATHER ROUNDUP FOR COLORADO
NATIONAL WEATHER SERVICE DENVER/BOULDER CO
1200 AM MST WED MAR 04 2015

NOTE: "FAIR" INDICATES FEW OR NO CLOUDS BELOW 12000 FEET WITH NO
SIGNIFICANT WEATHER AND/OR OBSTRUCTIONS TO VISIBILITY.

COZ001>005-013-030-031-040800-
...NORTHWEST COLORADO...

CITY           SKY/WX    TMP DP  RH WIND       PRES   REMARKS
CRAIG          CLOUDY    22  10  60 W10       29.92R WCI  11
HAYDEN         CLOUDY    19  12  73 W10       29.88R WCI   8
MEEKER         CLOUDY    22  14  71 NE8       29.90R WCI  12
MOUNT WERNER   NOT AVBL
STEAMBOAT SPGS CLOUDY    18  12  77 CALM      29.86R
WALDEN         CLOUDY    10   7  85 N7        29.77S WCI   0
$$

COZ006>008-011-040800-
...WEST CENTRAL VALLEYS...

CITY           SKY/WX    TMP DP  RH WIND       PRES   REMARKS
GRAND JUNCTION FOG       28  28 100 NW7       29.89R VSB 1/2 WCI  21
MONTROSE       CLOUDY    28  26  92 E3        29.89R
EAGLE          CLOUDY    25  21  86 CALM      29.86R
RIFLE          CLOUDY    30  26  85 W8        29.87R WCI  22
DELTA          MOCLDY    32  30  92 SW5       29.87R WCI  28
NUCLA          CLOUDY    30  28  93 SE6       29.91S WCI  24
$$

COZ017>023-064>068-040800-
...SOUTHWEST COLORADO...

CITY           SKY/WX    TMP DP  RH WIND       PRES   REMARKS
DURANGO        PTCLDY    23  19  85 N5        29.86S WCI  17
CORTEZ         MOCLDY    26  24  92 NE6       29.87F WCI  19
PAGOSA SPRINGS PTCLDY    17  16  95 CALM      29.85F
TELLURIDE      LGT SNOW  21  17  84 W6        29.84R WCI  14
WOLF CREEK PAS CLOUDY     9   9 100 MISG      29.79F
$$

COZ009-010-012-014-032>034-037-058>063-040800-
...CENTRAL COLORADO...

CITY           SKY/WX    TMP DP  RH WIND       PRES   REMARKS
ASPEN          LGT SNOW  22  19  89 N10       29.77S FOG     WCI  11
BUENA VISTA    CLOUDY    24  12  61 SE5       29.74F WCI  18
COPPER MTN     NOT AVBL
BERTHOUD PASS  HAZE       0  -8  71 NW18      29.66F VSB<1/4 WCI -22
COTTONWOOD PAS CLOUDY    23  12  63 W3        29.72S
GUNNISON       CLOUDY    21  16  79 S6        29.81S WCI  14
KREMMLING      CLOUDY    21   5  49 NW7       29.84R WCI  13
LEADVILLE      LGT SNOW  12   9  87 N9        29.71S VSB 3/4 WCI   0
SALIDA         PTCLDY    23  19  83 SE7       29.84S WCI  15
SUNLIGHT       CLOUDY    14  12  92 W3          N/A
WILKERSON PASS CLOUDY    10   7  85 SW7       29.71S WCI   0
$$

COZ069>075-040800-
...SAN LUIS VALLEY/SANGRE DE CRISTO MOUNTAINS...

CITY           SKY/WX    TMP DP  RH WIND       PRES   REMARKS
ALAMOSA        CLEAR     22  17  81 SW8       29.81R WCI  12
LA VETA PASS   CLOUDY    19  14  79 MISG      29.76F
SAGUACHE       CLEAR     23  18  80 N7        29.79S WCI  15
$$

COZ035-036-038>040-040800-
...NORTHERN COLORADO FRONT RANGE...

CITY           SKY/WX    TMP DP  RH WIND       PRES   REMARKS
DENVER INTL AP SNOW      14  12  92 NE13      29.93S VSB 1/4 WCI   0
DMNS CITY PARK   N/A     15  13  92 N8G14     29.94R WCI   4
AURORA         LGT SNOW  16  15  95 NE7       29.92S FOG     WCI   6
FRONT RANGE AP LGT SNOW  19  18  93 NE8       29.93S WCI   9
ERIE MUNI ARPT LGT SNOW  15  13  91 N6        29.97R WCI   6
BOULDER MUN AP LGT SNOW  14  12  92 N5        29.96R WCI   6
CENTENNIAL     LGT SNOW  16  14  92 NE5       29.89S VSB 3/4 WCI   9
BROOMFIELD     FLURRIES  14  12  92 N9        29.93S WCI   2
FORT COLLINS   MOCLDY    14   9  79 NE9       29.99R WCI   2
LONGMONT       LGT SNOW  17  13  84 NE6       30.00R WCI   8
$$

COZ041-046-047-076>085-087-088-040800-
...PIKES PEAK/PALMER DIVIDE AND SOUTHERN FOOTHILLS...

CITY           SKY/WX    TMP DP  RH WIND       PRES   REMARKS
COLO. SPRINGS  LGT SNOW  21  19  92 E8        29.86S FOG     WCI  11
A. F. ACADEMY  FLURRIES  18  16  93 N12       29.84R WCI   5
ELLICOTT       NOT AVBL
FALCON         LGT SNOW  19  18  95 CALM      29.84S
FORT CARSON    SNOW      22  21  96 E8        29.85S VSB 1/4 WCI  12
LIMON          FLURRIES  18  16  92 E12       29.91S WCI   5
MONUMENT HILL  LGT SNOW  16  14  93 N7        29.82R WCI   6
TRINIDAD       FOG       28  26  92 NE7       29.83S VSB 1/2 WCI  21
$$

COZ042>045-048>051-090-091-040800-
...NORTHEAST COLORADO...

CITY           SKY/WX    TMP DP  RH WIND       PRES   REMARKS
GREELEY ARPT   MOCLDY    14   5  67 NE7       29.99R WCI   4
AKRON          LGT SNOW  13  10  88 NE17      29.98R FOG     WCI  -4
BURLINGTON     LGT SNOW  18  15  88 NE15      29.99R FOG     WCI   4
WRAY           LGT SNOW  18  15  91 E5        30.05R WCI  11
STERLING       LGT SNOW  18  14  86 NE6       30.03R WCI   9
HOLYOKE        NOT AVBL
FORT MORGAN    LGT SNOW  15  11  86 NE12      30.00R WCI   1
$$

COZ086-089-092>099-040800-
...SOUTHEAST COLORADO...

CITY           SKY/WX    TMP DP  RH WIND       PRES   REMARKS
PUEBLO         CLOUDY    25  24  96 E13       29.90R FOG     WCI  14
LA JUNTA       CLOUDY    27  22  81 E14       29.93R WCI  16
LAMAR          CLOUDY    27  20  75 E13       29.94S WCI  16
SPRINGFIELD      N/A     24  21  88 E12       29.92R WCI  13
$$


USA.gov is the U.S. government's official web portal to all federal, state and local government web resources and services.